Weather in Sychevka

Russia / Smolensk Oblast     55°49′53″N   34°16′40″E
temp.,
°C
wind,
m/s
gust,
m/s
humid.,
%
clouds,
%
prec.,
mm/h
press.,
hPa
HPBL,
m
16 june, wed
wed1600:00+14nw34865 0.0 101257
03:00+12nnw34929 0.0 101362
06:00+14nnw379374 0.1 1013277
09:00+18n567348 0.1 1015820
12:00+20n455523 0.0 10161639
15:00+21n3552100 0.0 10161841
18:00+21nne35640 0.0 1016797
21:00+15n337313 0.0 101822
17 june, thu
thu1700:00+12nne337511 0.0 102037
03:00+10n33785 0.0 102225
06:00+12ne22815 0.0 102361
09:00+17e1165100 0.0 1024282
12:00+21sw01545 0.0 1025956
15:00+22e11500 0.0 10251092
18:00+22e11580 0.0 1025622
21:00+17s11692 0.0 102511
18 june, fri
fri1800:00+15sw22720 0.0 102610
03:00+13ssw11770 0.0 102710
06:00+14ssw22825 0.0 102852
09:00+19ssw23715 0.0 1027349
12:00+23ssw336027 0.0 10271156
15:00+24ssw23568 0.0 10261461
18:00+24ssw24695 0.0 1025939
21:00+19s33803 0.0 102625
19 june, sat
sat1900:00+16sw36880 0.0 102780
03:00+14sw35920 0.0 102778
06:00+15ssw24920 0.0 1028129
09:00+20sw34770 0.0 1027449
12:00+23ssw34655 0.0 10261108
15:00+25s34580 0.0 10251385
18:00+25s23680 0.0 1024994
21:00+19sw228055 0.0 102411
20 june, sun
sun2000:00+16ssw35894 0.0 102575
03:00+14ssw369419 0.0 102594
06:00+15ssw25915 0.0 1026132
09:00+20s34730 0.0 1025485
12:00+23s34580 0.0 10241035
15:00+25s34540 0.0 10231327
18:00+25ssw23664 0.0 1022919
21:00+20ssw12800 0.0 102212